Albion, NE

5:25 PM CST on February 09, 2016 (GMT -0600)
Albion Municipal

Weather History for KBVN - January, 2013

Change the Weather History Date:

Friday, January 11, 2013

  Actual Average (KOFK) Record (KOFK)
Temperature  
Mean Temperature 31 °F 22 °F  
Max Temperature 41 °F 33 °F 64 °F (2006)
Min Temperature 20 °F 12 °F -26 °F (1918)
Degree Days  
Heating Degree Days 34 43  
Month to date heating degree days 473  
Since 1 July heating degree days 3179  
Cooling Degree Days 0 0  
Month to date cooling degree days 0  
Year to date cooling degree days 0  
Moisture  
Dew Point 32 °F    
Average Humidity 92    
Maximum Humidity 99    
Minimum Humidity 73    
Precipitation  
Precipitation 0.00 in 0.02 in 0.50 in (1905)
Month to date precipitation 0.20  
Year to date precipitation 0.20  
Snow  
Snow 0.00 in 0.20 in - ()
Month to date snowfall 2.1  
Since 1 July snowfall 13.0  
Snow Depth -    
Sea Level Pressure  
Sea Level Pressure 29.49 in    
Wind  
Wind Speed 10 mph (SW)    
Max Wind Speed 28 mph    
Max Gust Speed 40 mph    
Visibility 5 miles    
Events Fog , Rain , Snow    
T = Trace of Precipitation, MM = Missing Value Source: NWS Daily Summary

Daily Weather History Graph

Daily Weather History Graph

Search for Another Location

Airport or City:

Trip Planner

Search our weather history database for the weather conditions in past years. The results will help you decide how hot, cold, wet, or windy it might be!

Date:

Astronomy

Jan. 11, 2013 Rise Set
Actual Time 7:58 AM CST 5:22 PM CST
Civil Twilight 7:27 AM CST 5:53 PM CST
Nautical Twilight 6:52 AM CST 6:28 PM CST
Astronomical Twilight 6:19 AM CST 7:01 PM CST
Moon 7:31 AM CST (1/11) 5:43 PM CST (1/11)
Length of Visible Light 10h 26m
Length of Day
9h 24m
Waning Crescent, 0% of the Moon is Illuminated
Jan 11
Waning Crescent
Jan 11
New
Jan 18
First Quarter
Jan 26
Full
Feb 3
Last Quarter

Hourly Weather History & Observations

Time (CST) Temp. Windchill Dew Point Humidity Pressure Visibility Wind Dir Wind Speed Gust Speed Precip Events Conditions
12:15 AM 36.5 °F 29.7 °F 36.0 °F 98% 29.60 in 4.0 mi South 9.2 mph - N/A   Overcast
12:35 AM 36.5 °F 30.3 °F 36.0 °F 98% 29.60 in 3.0 mi South 8.1 mph - N/A   Overcast
12:55 AM 36.9 °F 32.2 °F 36.5 °F 99% 29.60 in 3.0 mi South 5.8 mph - N/A   Overcast
1:15 AM 36.9 °F 31.4 °F 36.5 °F 99% 29.59 in 2.5 mi SSE 6.9 mph - N/A   Overcast
1:35 AM 37.2 °F 30.6 °F 36.7 °F 98% 29.59 in 2.0 mi South 9.2 mph - N/A   Overcast
1:55 AM 37.4 °F 31.4 °F 36.9 °F 98% 29.58 in 2.0 mi South 8.1 mph - N/A   Overcast
2:15 AM 37.8 °F 31.8 °F 37.2 °F 98% 29.57 in 2.0 mi South 8.1 mph - N/A   Overcast
2:35 AM 37.9 °F 30.9 °F 37.4 °F 98% 29.55 in 2.0 mi South 10.4 mph 16.1 mph N/A   Overcast
2:55 AM 37.8 °F 30.7 °F 37.4 °F 99% 29.54 in 2.5 mi South 10.4 mph 17.3 mph N/A   Overcast
3:15 AM 37.6 °F 30.5 °F 37.0 °F 98% 29.55 in 2.5 mi South 10.4 mph - N/A   Overcast
3:35 AM 37.8 °F 31.8 °F 37.2 °F 98% 29.53 in 3.0 mi South 8.1 mph 17.3 mph N/A   Overcast
3:55 AM 37.6 °F 31.0 °F 37.0 °F 98% 29.52 in 3.0 mi South 9.2 mph - N/A   Overcast
4:15 AM 37.4 °F 30.8 °F 36.7 °F 97% 29.50 in 2.0 mi South 9.2 mph - N/A   Overcast
4:35 AM 37.4 °F 30.3 °F 36.7 °F 97% 29.48 in 3.0 mi South 10.4 mph - N/A   Overcast
4:55 AM 37.4 °F 29.3 °F 36.7 °F 97% 29.49 in 5.0 mi South 12.7 mph - N/A   Overcast
5:15 AM 37.4 °F 29.8 °F 36.7 °F 97% 29.49 in 3.0 mi South 11.5 mph - N/A   Overcast
5:35 AM 36.9 °F 29.1 °F 36.5 °F 99% 29.48 in 2.0 mi South 11.5 mph - N/A   Overcast
5:55 AM 36.9 °F 31.4 °F 36.5 °F 99% 29.46 in 1.5 mi South 6.9 mph - N/A   Overcast
6:15 AM 36.9 °F 30.7 °F 36.5 °F 99% 29.46 in 1.5 mi South 8.1 mph - N/A   Overcast
6:55 AM 36.9 °F 32.2 °F 36.5 °F 99% 29.45 in 1.5 mi SSE 5.8 mph - N/A   Overcast
7:15 AM 36.9 °F 34.3 °F 36.3 °F 98% 29.47 in 1.5 mi South 3.5 mph - N/A   Overcast
7:35 AM 36.7 °F 32.9 °F 36.1 °F 98% 29.46 in 1.2 mi SSE 4.6 mph - N/A   Light Drizzle
7:55 AM 36.7 °F 32.9 °F 36.1 °F 98% 29.46 in 0.8 mi SE 4.6 mph - N/A   Overcast
8:15 AM 36.9 °F 31.4 °F 36.5 °F 99% 29.44 in 1.0 mi ESE 6.9 mph - N/A   Overcast
8:35 AM - - - N/A% 29.43 in 1.0 mi SE 9.2 mph - N/A   Overcast
8:55 AM - - - N/A% 29.42 in 0.5 mi SE 6.9 mph - N/A Fog Fog
9:15 AM 37.8 °F 31.8 °F 37.4 °F 99% 29.43 in 1.0 mi SSE 8.1 mph - N/A   Overcast
9:35 AM 38.3 °F 33.9 °F 37.8 °F 98% 29.43 in 1.5 mi South 5.8 mph - N/A   Overcast
9:55 AM 38.7 °F 33.6 °F 38.3 °F 99% 29.43 in 1.5 mi SSE 6.9 mph - N/A Rain Light Rain
10:15 AM 38.8 °F 34.6 °F 38.3 °F 98% 29.43 in 1.8 mi South 5.8 mph - N/A Rain Light Rain
10:35 AM 39.0 °F 34.8 °F 38.3 °F 97% 29.42 in 1.5 mi SSE 5.8 mph - N/A   Overcast
10:55 AM 39.4 °F 35.2 °F 38.8 °F 98% 29.41 in 1.5 mi South 5.8 mph - N/A   Overcast
11:15 AM 39.9 °F 34.5 °F 39.2 °F 97% 29.41 in 2.5 mi South 8.1 mph - N/A   Overcast
11:35 AM 40.1 °F 36.1 °F 39.6 °F 98% 29.39 in 2.0 mi SSW 5.8 mph - N/A   Overcast
11:55 AM 40.1 °F 36.1 °F 39.6 °F 98% 29.40 in 3.0 mi WSW 5.8 mph - N/A   Overcast
12:15 PM 40.1 °F 36.9 °F 39.6 °F 98% 29.38 in 2.5 mi SW 4.6 mph - N/A   Overcast
12:35 PM 40.3 °F 37.1 °F 39.9 °F 99% 29.38 in 5.0 mi WSW 4.6 mph - N/A   Overcast
12:55 PM 40.3 °F 38.2 °F 39.4 °F 97% 29.37 in 7.0 mi West 3.5 mph - N/A   Overcast
1:15 PM 40.6 °F 37.5 °F 38.7 °F 93% 29.37 in 10.0 mi WSW 4.6 mph - N/A   Overcast
1:35 PM 41.0 °F - 37.8 °F 88% 29.36 in 10.0 mi Calm Calm - N/A   Overcast
2:15 PM 41.0 °F - 37.4 °F 87% 29.36 in 10.0 mi Calm Calm - N/A   Overcast
2:35 PM 41.4 °F 38.4 °F 37.6 °F 86% 29.34 in 10.0 mi WNW 4.6 mph - N/A   Overcast
2:55 PM 40.5 °F 38.4 °F 36.7 °F 86% 29.38 in 10.0 mi WNW 3.5 mph - N/A   Overcast
3:15 PM 38.3 °F 30.5 °F 34.5 °F 86% 29.37 in 10.0 mi North 12.7 mph 18.4 mph N/A   Overcast
3:35 PM 35.8 °F 28.3 °F 32.9 °F 89% 29.39 in 10.0 mi NNW 10.4 mph - N/A   Overcast
3:55 PM 34.9 °F 24.6 °F 32.4 °F 91% 29.39 in 7.0 mi NNW 17.3 mph - N/A   Overcast
4:15 PM 33.8 °F 24.8 °F 31.8 °F 92% 29.41 in 5.0 mi NNW 12.7 mph 18.4 mph N/A   Overcast
4:35 PM 33.3 °F 24.1 °F 31.1 °F 92% 29.42 in 5.0 mi NNW 12.7 mph - N/A   Overcast
4:55 PM 32.9 °F 22.0 °F 30.7 °F 92% 29.43 in 4.0 mi NNW 17.3 mph 24.2 mph N/A   Overcast
5:15 PM 32.2 °F 21.4 °F 30.2 °F 92% 29.43 in 3.0 mi NNW 16.1 mph 20.7 mph N/A   Overcast
5:35 PM 32.0 °F 20.8 °F 29.8 °F 92% 29.44 in 2.5 mi NNW 17.3 mph 21.9 mph N/A   Overcast
5:55 PM 31.6 °F 20.7 °F 28.6 °F 88% 29.45 in 5.0 mi NNW 16.1 mph 21.9 mph N/A   Overcast
6:15 PM 30.9 °F 19.1 °F 27.9 °F 88% 29.48 in 7.0 mi NW 18.4 mph 23.0 mph N/A   Overcast
6:35 PM 30.0 °F 17.9 °F 27.1 °F 89% 29.48 in 7.0 mi NNW 18.4 mph 26.5 mph N/A   Overcast
6:55 PM 28.4 °F 13.8 °F 25.5 °F 89% 29.50 in 4.0 mi NW 25.3 mph 32.2 mph N/A   Overcast
7:15 PM 27.9 °F 13.7 °F 24.8 °F 88% 29.51 in 7.0 mi NNW 23.0 mph 33.4 mph N/A   Overcast
7:35 PM 27.3 °F 12.4 °F 24.3 °F 88% 29.51 in 7.0 mi NW 25.3 mph 33.4 mph N/A   Overcast
7:55 PM 26.6 °F 12.4 °F 23.0 °F 86% 29.54 in 10.0 mi NW 21.9 mph 34.5 mph N/A Snow Light Snow
8:15 PM 26.4 °F 12.1 °F 21.9 °F 83% 29.58 in 10.0 mi WNW 21.9 mph 28.8 mph N/A Snow Light Snow
8:35 PM 25.0 °F 10.2 °F 19.4 °F 79% 29.60 in 10.0 mi NW 21.9 mph 32.2 mph N/A   Overcast
8:55 PM 24.4 °F 8.2 °F 17.8 °F 76% 29.61 in 10.0 mi NW 26.5 mph 39.1 mph N/A   Overcast
9:15 PM 23.4 °F 6.5 °F 17.1 °F 77% 29.63 in 10.0 mi NW 27.6 mph 40.3 mph N/A   Overcast
9:35 PM 22.6 °F 8.3 °F 16.5 °F 77% 29.65 in 10.0 mi NW 18.4 mph 32.2 mph N/A   Mostly Cloudy
9:55 PM 22.1 °F 7.2 °F 16.3 °F 79% 29.66 in 10.0 mi NW 19.6 mph 28.8 mph N/A   Scattered Clouds
10:15 PM 21.7 °F 6.3 °F 15.3 °F 76% 29.67 in 10.0 mi NW 20.7 mph 29.9 mph N/A   Clear
10:35 PM 21.4 °F 6.6 °F 15.6 °F 78% 29.70 in 10.0 mi WNW 18.4 mph 26.5 mph N/A Snow Light Snow
10:55 PM 21.6 °F 6.1 °F 14.0 °F 73% 29.70 in 10.0 mi NW 20.7 mph 31.1 mph N/A   Scattered Clouds
11:35 PM 21.0 °F 5.7 °F 14.5 °F 76% 29.74 in 10.0 mi WNW 19.6 mph 27.6 mph N/A   Clear
11:55 PM 20.8 °F 5.5 °F 14.0 °F 75% 29.75 in 10.0 mi WNW 19.6 mph 29.9 mph N/A   Clear